Regional Weather Roundup
Issued by NWS

Home | Current Version | Previous Version | Text Only | Print | Product List | Glossary Off
Versions: 1 2 3 4 5 6 7 8 9 10 11 12 13 14 15 16 17 18 19 20 21 22 23 24 25 26 27 28 29 30 31 32 33 34 35 36 37 38 39 40 41 42 43 44 45 46 47 48 49 50

000
ASUS45 KSLC 271310
RWRUT

UTAH REGIONAL WEATHER ROUNDUP
NATIONAL WEATHER SERVICE SALT LAKE CITY UT
700 AM MDT MON APR 27 2015

UTZ001>011-023>025-271400-

NORTHERN UTAH

CITY           SKY/WX    TMP DP  RH WIND       PRES   REMARKS
BRIGHAM CITY   PTCLDY    41  31  66 W8        30.22R
HILL AFB       NOT AVBL
LOGAN          CLOUDY    34  31  88 CALM      30.23R
OGDEN          CLEAR     39  34  82 NW8       30.19R WCI  33
PROVO AIRPORT  PTCLDY    39  34  81 SE5       30.18R
SALT LAKE CITY PTCLDY    39  34  82 CALM      30.20R
VERNAL         CLOUDY    45  33  63 VRB5      30.14R
WENDOVER       PTCLDY    45  16  31 NW9       30.23R
HEBER CITY     CLOUDY    41  32  70 NE6       30.18R
WEST JORDAN    CLEAR     39  34  81 NW10      30.20R WCI  32

$$

UTZ012>022-026-027-271400-

SOUTHERN/CENTRAL UTAH

CITY           SKY/WX    TMP DP  RH WIND       PRES   REMARKS
BLANDING       PTCLDY    42  35  77 N7        30.08R
BRYCE CANYON   CLEAR     27  23  85 NW9       30.16R WCI  18
CEDAR CITY     CLEAR     31  27  85 CALM      30.16R
DELTA          CLOUDY    39  30  70 NW7       30.19R WCI  34
HANKSVILLE     CLEAR     41  32  70 CALM      30.09R
MILFORD        MOCLDY    34  25  69 NW9       30.18R WCI  27
MOAB/CYNLANDS  MOCLDY    47  39  74 NW9       30.04R
PRICE          NOT AVBL
ST GEORGE      SUNNY     48  28  46 CALM      30.08R
KANAB          CLEAR     36  30  80 NE7       30.12R WCI  30

$$

REGIONAL REPORTS     COLORADO/ARIZONA

CITY           SKY/WX    TMP DP  RH WIND       PRES   REMARKS
CRAIG, CO      CLOUDY    41  38  89 W6        30.14R
GRAND JUNCTION MOCLDY    43  40  89 N3        30.07R
RIFLE          CLOUDY    42  38  85 E3        30.11R
MONTROSE       CLOUDY    42  39  89 CALM      30.11R
CORTEZ         CLEAR     33  32  96 NE3       30.03R
PAGE, AZ       NOT AVBL
GRAND CANYON   CLEAR     28  25  88 NE3       30.07R
KINGMAN        CLEAR     39  27  62 SE10      30.03R WCI  32
FLAGSTAFF      CLEAR     40  31  70 NE20G25   30.03S WCI  30

$$

REGIONAL REPORTS    NEVADA/IDAHO/WYOMING

CITY           SKY/WX    TMP DP  RH WIND       PRES   REMARKS
LAS VEGAS, NV  CLEAR     60  18  19 NW14      30.03R
ELY            CLEAR     25  18  74 W3        30.24S
ELKO           CLEAR     28  22  78 E6        30.28R WCI  22
POCATELLO, ID  PTCLDY    32  26  78 SW3       30.29R
BURLEY         CLEAR     30  21  69 S5        30.27R WCI  25
EVANSTON, WY   CLOUDY    34  31  88 N9        30.21R WCI  27
ROCK SPRINGS   FLURRIES  35  32  88 NE10      30.21R WCI  27
KEMMERER       CLOUDY    34  32  93 SW7       30.21R WCI  28

$$


USA.gov is the U.S. government's official web portal to all federal, state and local government web resources and services.